User: anonymous   Login
Location: Pensacola
(30.4142°N, 87.2155°W)
Time: 19:01:39
(UTC-05:00)
Language:

CAS-4A - Orbit

View from above orbital plane
View from above orbital plane
View from above satellite
View from above satellite

Ground track
Ground track

The orbit data is extracted from the following two-line orbital elements,

1 42761U 17034D   23150.49660260  .00005872  00000-0  30149-3 0  9991
2 42761  43.0139 212.5436 0011868 343.6209  16.4254 15.17160721328945
Epoch (UTC): 30 May 2023 11:55:06
Eccentricity: 0.0011868
inclination: 43.0139°
perigee height: 506 km
apogee height: 522 km
right ascension of ascending node: 212.5436°
argument of perigee: 343.6209°
revolutions per day: 15.17160721
mean anomaly at epoch: 16.4254°
orbit number at epoch: 32894

The dashed part of the orbit path shows where the satellite is in the earth's shadow,  

DLR